Orbital Elements at Epoch 2459200.5 (2020-Dec-17.0) TDB
Reference: JPL 15 (heliocentric ecliptic J2000)
Element | Value | Uncertainty (1-sigma) | Units |
e | .2019507461926962 | 4.6377e-08 | |
a | 3.137692298825396 | 2.7951e-08 | au |
q | 2.504032997754531 | 1.55e-07 | au |
i | .5445099434078347 | 6.327e-06 | deg |
node | 198.6967226377023 | 0.00046805 | deg |
peri | 132.1433617404332 | 0.00046833 | deg |
M | 304.4957209369574 | 1.9046e-05 | deg |
tp | 2459513.495374716937 (2021-Oct-25.99537472) | 0.00011013 | TDB |
period | 2030.083748500103 5.56 | 2.7126e-05 7.427e-08 | d yr |
n | .1773325855477542 | 2.3695e-09 | deg/d |
Q | 3.771351599896261 | 3.3595e-08 | au |
|
| | Orbit Determination Parameters
Additional Information
|